Weather in Belaya Holunitsa

Russia / Kirov Oblast     58°50′36″N   50°51′09″E
temp.,
°C
wind,
m/s
gust,
m/s
humid.,
%
clouds,
%
prec.,
mm/h
press.,
hPa
HPBL,
m
5 march, fri
fri500:00−7nw61291100 0.3 990756
03:00−12wnw51193100 0.4 994429
06:00−16wnw3109697 0.0 997274
09:00−13wnw258962 0.0 999271
12:00−9wsw368851 0.0 999481
15:00−8w478875 0.1 1001766
18:00−10nw2796100 0.3 1002336
21:00−13nw2796100 0.6 1005213
6 march, sat
sat600:00−18wnw239863 0.0 100653
03:00−20w239932 0.0 100874
06:00−22w239934 0.0 100964
09:00−17w249344 0.0 1011245
12:00−13w348686 0.0 1011613
15:00−12wsw358693 0.1 1010763
18:00−15sw2596100 0.1 1010116
21:00−16wsw2498100 0.1 1011117
7 march, sun
sun700:00−19wsw229988 0.1 101020
03:00−21wsw1210082 0.1 101020
06:00−22ssw129925 0.0 101020
09:00−17ssw239213 0.0 1009206
12:00−11s248682 0.0 1007542
15:00−11s358691 0.1 1005616
18:00−15sse389696 0.0 1004174
21:00−14sse4119498 0.0 1004380
8 march, mon
mon800:00−14se4991100 0.0 1001337
03:00−14se41194100 0.2 999371
06:00−14se41194100 0.5 997468
09:00−12ese4991100 0.9 996522
12:00−10se4788100 0.3 996622
15:00−9e3691100 0.6 996504
18:00−10e2396100 0.5 99788
21:00−11s1297100 0.8 99821
9 march, tue
tue900:00−12ene1197100 0.1 99821
03:00−13nne2497100 0.2 999114
06:00−14n3795100 0.3 1000309
09:00−14n379299 0.4 1003390
12:00−11n3589100 0.1 1005503
15:00−11n3588100 0.1 1007618
18:00−14n3795100 0.1 1009355
21:00−17nne279798 0.1 1011237